Weather History for KAPA - October, 2011

Change the Weather History Date:

Wednesday, October 12, 2011

  Actual Average Record
Temperature  
Mean Temperature 54 °F -  
Max Temperature 67 °F 65 °F 81 °F (1999)
Min Temperature 41 °F 35 °F 32 °F (1997)
Degree Days  
Heating Degree Days 11    
Month to date heating degree days 100  
Growing Degree Days 6 (Base 50)    
Moisture  
Dew Point 24 °F    
Average Humidity 34    
Maximum Humidity 53    
Minimum Humidity 14    
Precipitation  
Precipitation 0.00 in - - ()
Month to date precipitation 0.90  
Sea Level Pressure  
Sea Level Pressure 29.98 in    
Wind  
Wind Speed 13 mph (NNW)    
Max Wind Speed 24 mph    
Max Gust Speed 35 mph    
Visibility 10 miles    
Events      
Averages and records for this station are not official NWS values.
T = Trace of Precipitation, MM = Missing Value Source: NWS Daily Summary

Daily Weather History Graph

Daily Weather History Graph

Search for Another Location

Airport or City:

Trip Planner

Search our weather history database for the weather conditions in past years. The results will help you decide how hot, cold, wet, or windy it might be!

Date:

Astronomy

Oct. 12, 2011 Rise Set
Actual Time 7:06 AM MDT 6:25 PM MDT
Civil Twilight 6:39 AM MDT 6:52 PM MDT
Nautical Twilight 6:07 AM MDT 7:23 PM MDT
Astronomical Twilight 5:36 AM MDT 7:54 PM MDT
Moon 6:28 PM MDT (10/12) 7:43 AM MDT (10/12)
Length of Visible Light 12h 12m
Length of Day
11h 18m
Full, 100% of the Moon is Illuminated
Oct 12
Full
Oct 19
Last Quarter
Oct 26
New
Nov 2
First Quarter
Nov 10
Full

Hourly Weather History & Observations

Time (MDT) Temp. Windchill Dew Point Humidity Pressure Visibility Wind Dir Wind Speed Gust Speed Precip Events Conditions
1:53 AM 53.1 °F - 34.0 °F 48% 29.87 in 10.0 mi WNW 10.4 mph - N/A   Mostly Cloudy
2:53 AM 55.0 °F - 30.0 °F 38% 29.87 in 10.0 mi NW 17.3 mph 31.1 mph N/A   Overcast
3:53 AM 54.0 °F - 28.0 °F 37% 29.89 in 10.0 mi WNW 11.5 mph 19.6 mph N/A   Clear
4:53 AM 54.0 °F - 23.0 °F 30% 29.90 in 10.0 mi NW 23.0 mph 32.2 mph N/A   Clear
5:53 AM 52.0 °F - 23.0 °F 32% 29.94 in 10.0 mi NW 19.6 mph 26.5 mph N/A   Clear
7:53 AM 51.1 °F - 21.9 °F 32% 30.00 in 10.0 mi NW 17.3 mph - N/A   Partly Cloudy
8:53 AM 54.0 °F - 21.0 °F 28% 30.01 in 10.0 mi NNW 15.0 mph 27.6 mph N/A   Partly Cloudy
9:53 AM 55.0 °F - 24.1 °F 30% 30.03 in 10.0 mi NNE 12.7 mph - N/A   Partly Cloudy
10:53 AM 57.9 °F - 23.0 °F 26% 30.01 in 10.0 mi North 11.5 mph 19.6 mph N/A   Partly Cloudy
11:53 AM 60.1 °F - 23.0 °F 24% 30.00 in 10.0 mi North 8.1 mph - N/A   Partly Cloudy
12:53 PM 63.0 °F - 19.9 °F 19% 29.98 in 10.0 mi North 10.4 mph 17.3 mph N/A   Partly Cloudy
1:53 PM 64.9 °F - 19.0 °F 17% 29.95 in 10.0 mi North 12.7 mph 19.6 mph N/A   Partly Cloudy
2:53 PM 66.0 °F - 18.0 °F 16% 29.92 in 10.0 mi NNW 13.8 mph - N/A   Partly Cloudy
3:53 PM 66.9 °F - 16.0 °F 14% 29.92 in 10.0 mi NW 15.0 mph 25.3 mph N/A   Partly Cloudy
4:53 PM 64.9 °F - 15.1 °F 15% 29.95 in 10.0 mi NW 15.0 mph 23.0 mph N/A   Partly Cloudy
5:53 PM 60.1 °F - 24.1 °F 25% 29.99 in 10.0 mi Variable 4.6 mph - N/A   Partly Cloudy
6:53 PM 55.0 °F - 26.1 °F 33% 30.03 in 10.0 mi Calm Calm - N/A   Clear
7:53 PM 53.1 °F - 26.1 °F 35% 30.06 in 10.0 mi SE 6.9 mph - N/A   Clear
8:53 PM 48.0 °F - 28.0 °F 46% 30.08 in 10.0 mi South 6.9 mph - N/A   Clear
9:53 PM 46.0 °F 41.4 °F 28.0 °F 50% 30.08 in 10.0 mi South 9.2 mph - N/A   Clear
10:53 PM 45.0 °F 40.1 °F 28.0 °F 52% 30.07 in 10.0 mi SSE 9.2 mph - N/A   Clear
11:53 PM 42.1 °F 36.6 °F 26.1 °F 53% 30.06 in 10.0 mi South 9.2 mph - N/A   Clear